Time,TemperatureF,DewpointF,PressureIn,WindDirection,WindDirectionDegrees,WindSpeedMPH,WindSpeedGustMPH,Humidity,HourlyPrecipIn,Conditions,Clouds,dailyrainin,SoftwareType,DateUTC
2013-04-04 00:00:00,39.7,38.4,30.23,NNE,26,0.0,1.0,95,0.09,,,0.11,LWC2 V0.39 B123,2013-04-04 06:00:00,
2013-04-04 00:06:00,39.7,38.4,30.23,North,8,0.0,0.0,95,0.13,,,0.12,LWC2 V0.39 B123,2013-04-04 06:06:00,
2013-04-04 00:11:00,39.6,38.3,30.23,NNE,20,0.0,2.0,95,0.13,,,0.13,LWC2 V0.39 B123,2013-04-04 06:11:00,
2013-04-04 00:16:00,39.6,38.3,30.23,North,8,2.0,3.0,95,0.11,,,0.14,LWC2 V0.39 B123,2013-04-04 06:16:00,
2013-04-04 00:21:00,39.6,38.0,30.23,NNE,12,0.0,2.0,94,0.10,,,0.15,LWC2 V0.39 B123,2013-04-04 06:21:00,
2013-04-04 00:26:00,39.7,38.4,30.23,North,7,0.0,0.0,95,0.10,,,0.15,LWC2 V0.39 B123,2013-04-04 06:26:00,
2013-04-04 00:31:00,39.6,38.3,30.23,NNE,27,1.0,1.0,95,0.10,,,0.16,LWC2 V0.39 B123,2013-04-04 06:31:00,
2013-04-04 00:36:00,39.5,37.9,30.23,NE,39,0.0,3.0,94,0.10,,,0.17,LWC2 V0.39 B123,2013-04-04 06:36:00,
2013-04-04 00:41:00,39.5,37.9,30.24,North,7,4.0,4.0,94,0.10,,,0.18,LWC2 V0.39 B123,2013-04-04 06:41:00,
2013-04-04 00:46:00,39.5,37.9,30.24,NE,34,2.0,2.0,94,0.10,,,0.19,LWC2 V0.39 B123,2013-04-04 06:46:00,
2013-04-04 00:51:00,39.3,37.7,30.24,NNE,18,1.0,2.0,94,0.12,,,0.20,LWC2 V0.39 B123,2013-04-04 06:51:00,
2013-04-04 00:56:00,39.3,37.7,30.24,NE,36,1.0,2.0,94,0.13,,,0.21,LWC2 V0.39 B123,2013-04-04 06:56:00,
2013-04-04 01:01:00,39.3,38.0,30.24,NNE,33,2.0,3.0,95,0.10,,,0.22,LWC2 V0.39 B123,2013-04-04 07:01:00,
2013-04-04 01:06:00,39.3,38.0,30.24,NNE,26,0.0,3.0,95,0.08,,,0.22,LWC2 V0.39 B123,2013-04-04 07:06:00,
2013-04-04 01:11:00,39.2,37.6,30.24,NNE,18,2.0,3.0,94,0.08,,,0.23,LWC2 V0.39 B123,2013-04-04 07:11:00,
2013-04-04 01:16:00,39.2,37.9,30.24,NNE,30,2.0,5.0,95,0.10,,,0.24,LWC2 V0.39 B123,2013-04-04 07:16:00,
2013-04-04 01:21:00,39.1,37.8,30.24,NNE,27,0.0,3.0,95,0.09,,,0.25,LWC2 V0.39 B123,2013-04-04 07:21:00,
2013-04-04 01:26:00,39.1,37.8,30.23,North,1,2.0,2.0,95,0.12,,,0.25,LWC2 V0.39 B123,2013-04-04 07:26:00,
2013-04-04 01:31:00,39.1,37.8,30.23,NNE,22,0.0,0.0,95,0.09,,,0.26,LWC2 V0.39 B123,2013-04-04 07:31:00,
2013-04-04 01:36:00,39.0,37.7,30.23,NNE,16,1.0,3.0,95,0.09,,,0.27,LWC2 V0.39 B123,2013-04-04 07:36:00,
2013-04-04 01:41:00,39.0,37.7,30.23,NNE,20,2.0,2.0,95,0.08,,,0.28,LWC2 V0.39 B123,2013-04-04 07:41:00,
2013-04-04 01:46:00,39.0,37.7,30.23,NNE,29,1.0,2.0,95,0.07,,,0.28,LWC2 V0.39 B123,2013-04-04 07:46:00,
2013-04-04 01:51:00,38.9,37.6,30.23,North,4,1.0,4.0,95,0.06,,,0.29,LWC2 V0.39 B123,2013-04-04 07:51:00,
2013-04-04 01:56:00,39.0,37.7,30.23,ENE,69,3.0,3.0,95,0.06,,,0.29,LWC2 V0.39 B123,2013-04-04 07:56:00,
2013-04-04 02:02:00,39.0,37.4,30.23,NE,35,0.0,4.0,94,0.04,,,0.29,LWC2 V0.39 B123,2013-04-04 08:02:00,
2013-04-04 02:08:00,39.0,37.4,30.23,NNE,14,4.0,5.0,94,0.00,,,0.29,LWC2 V0.39 B123,2013-04-04 08:08:00,
2013-04-04 02:13:00,39.0,37.4,30.23,NE,42,0.0,1.0,94,0.00,,,0.30,LWC2 V0.39 B123,2013-04-04 08:13:00,
2013-04-04 02:18:00,39.0,37.4,30.23,NE,49,0.0,2.0,94,0.00,,,0.30,LWC2 V0.39 B123,2013-04-04 08:18:00,
2013-04-04 02:23:00,39.0,37.4,30.23,NNE,13,3.0,4.0,94,0.00,,,0.30,LWC2 V0.39 B123,2013-04-04 08:23:00,
2013-04-04 02:28:00,39.0,37.2,30.22,NE,53,4.0,4.0,93,0.00,,,0.30,LWC2 V0.39 B123,2013-04-04 08:28:00,
2013-04-04 02:33:00,39.0,37.2,30.22,NNE,29,2.0,4.0,93,0.00,,,0.30,LWC2 V0.39 B123,2013-04-04 08:33:00,
2013-04-04 02:38:00,38.9,37.1,30.22,NE,55,4.0,5.0,93,0.00,,,0.31,LWC2 V0.39 B123,2013-04-04 08:38:00,
2013-04-04 02:43:00,38.9,37.1,30.22,North,6,2.0,3.0,93,0.00,,,0.30,LWC2 V0.39 B123,2013-04-04 08:43:00,
2013-04-04 02:48:00,38.9,37.1,30.22,NNE,25,2.0,5.0,93,0.00,,,0.31,LWC2 V0.39 B123,2013-04-04 08:48:00,
2013-04-04 02:53:00,38.9,37.1,30.22,NNE,22,2.0,2.0,93,0.00,,,0.31,LWC2 V0.39 B123,2013-04-04 08:53:00,
2013-04-04 02:58:00,39.0,37.2,30.22,NNE,13,3.0,3.0,93,0.00,,,0.31,LWC2 V0.39 B123,2013-04-04 08:58:00,
2013-04-04 03:03:00,38.9,37.1,30.22,NE,34,2.0,5.0,93,0.00,,,0.30,LWC2 V0.39 B123,2013-04-04 09:03:00,
2013-04-04 03:08:00,38.9,37.1,30.22,NE,46,0.0,1.0,93,0.00,,,0.32,LWC2 V0.39 B123,2013-04-04 09:08:00,
2013-04-04 03:13:00,38.9,37.1,30.22,North,7,2.0,3.0,93,0.00,,,0.32,LWC2 V0.39 B123,2013-04-04 09:13:00,
2013-04-04 03:18:00,38.9,37.1,30.22,NE,37,0.0,3.0,93,0.00,,,0.32,LWC2 V0.39 B123,2013-04-04 09:18:00,
2013-04-04 03:23:00,38.9,37.1,30.22,NNE,25,2.0,4.0,93,0.00,,,0.31,LWC2 V0.39 B123,2013-04-04 09:23:00,
2013-04-04 03:28:00,39.0,37.2,30.22,NNE,29,0.0,1.0,93,0.00,,,0.32,LWC2 V0.39 B123,2013-04-04 09:28:00,
2013-04-04 03:33:00,38.9,37.1,30.21,NNE,18,0.0,3.0,93,0.00,,,0.32,LWC2 V0.39 B123,2013-04-04 09:33:00,
2013-04-04 03:38:00,38.9,37.1,30.21,NNE,30,0.0,1.0,93,0.00,,,0.32,LWC2 V0.39 B123,2013-04-04 09:38:00,
2013-04-04 03:43:00,38.9,37.3,30.21,NE,49,1.0,3.0,94,0.00,,,0.32,LWC2 V0.39 B123,2013-04-04 09:43:00,
2013-04-04 03:49:00,38.9,37.3,30.21,NNE,32,0.0,2.0,94,0.00,,,0.31,LWC2 V0.39 B123,2013-04-04 09:49:00,
2013-04-04 03:55:00,38.9,37.3,30.21,NE,39,0.0,2.0,94,0.00,,,0.31,LWC2 V0.39 B123,2013-04-04 09:55:00,
2013-04-04 04:01:00,39.0,37.4,30.21,North,9,2.0,3.0,94,0.00,,,0.31,LWC2 V0.39 B123,2013-04-04 10:01:00,
2013-04-04 04:07:00,39.0,37.4,30.21,ENE,61,2.0,6.0,94,0.00,,,0.33,LWC2 V0.39 B123,2013-04-04 10:07:00,
2013-04-04 04:12:00,39.1,37.5,30.20,NNW,345,0.0,2.0,94,0.00,,,0.32,LWC2 V0.39 B123,2013-04-04 10:12:00,
2013-04-04 04:18:00,39.1,37.5,30.21,NNE,27,0.0,1.0,94,0.00,,,0.33,LWC2 V0.39 B123,2013-04-04 10:18:00,
2013-04-04 04:24:00,39.1,37.5,30.21,NE,35,1.0,1.0,94,0.00,,,0.32,LWC2 V0.39 B123,2013-04-04 10:24:00,
2013-04-04 04:29:00,39.1,37.5,30.20,NNE,23,0.0,3.0,94,0.00,,,0.32,LWC2 V0.39 B123,2013-04-04 10:29:00,
2013-04-04 04:34:00,39.1,37.5,30.20,NNE,29,0.0,0.0,94,0.00,,,0.32,LWC2 V0.39 B123,2013-04-04 10:34:00,
2013-04-04 04:39:00,39.0,37.4,30.20,NNE,22,0.0,0.0,94,0.00,,,0.32,LWC2 V0.39 B123,2013-04-04 10:39:00,
2013-04-04 04:45:00,39.1,37.5,30.20,NNE,24,0.0,1.0,94,0.00,,,0.32,LWC2 V0.39 B123,2013-04-04 10:45:00,
2013-04-04 04:51:00,39.1,37.5,30.20,NE,53,1.0,3.0,94,0.00,,,0.32,LWC2 V0.39 B123,2013-04-04 10:51:00,
2013-04-04 04:56:00,39.1,37.5,30.20,NE,34,0.0,1.0,94,0.00,,,0.32,LWC2 V0.39 B123,2013-04-04 10:56:00,
2013-04-04 05:01:00,39.1,37.5,30.20,NNE,22,0.0,0.0,94,0.00,,,0.32,LWC2 V0.39 B123,2013-04-04 11:01:00,
2013-04-04 05:07:00,39.1,37.5,30.20,NNE,20,0.0,0.0,94,0.00,,,0.33,LWC2 V0.39 B123,2013-04-04 11:07:00,
2013-04-04 05:12:00,39.1,37.5,30.20,NE,41,1.0,1.0,94,0.00,,,0.33,LWC2 V0.39 B123,2013-04-04 11:12:00,
2013-04-04 05:17:00,39.2,37.6,30.20,NE,35,0.0,1.0,94,0.00,,,0.32,LWC2 V0.39 B123,2013-04-04 11:17:00,
2013-04-04 05:23:00,39.3,37.7,30.20,ENE,68,2.0,2.0,94,0.00,,,0.32,LWC2 V0.39 B123,2013-04-04 11:23:00,
2013-04-04 05:28:00,39.3,37.7,30.20,NE,47,1.0,2.0,94,0.00,,,0.33,LWC2 V0.39 B123,2013-04-04 11:28:00,
2013-04-04 05:33:00,39.3,37.4,30.20,NNE,32,0.0,3.0,93,0.00,,,0.33,LWC2 V0.39 B123,2013-04-04 11:33:00,
2013-04-04 05:38:00,39.3,37.4,30.20,NE,44,4.0,4.0,93,0.00,,,0.32,LWC2 V0.39 B123,2013-04-04 11:38:00,
2013-04-04 05:43:00,39.3,37.4,30.20,North,356,2.0,4.0,93,0.00,,,0.33,LWC2 V0.39 B123,2013-04-04 11:43:00,
2013-04-04 05:48:00,39.3,37.4,30.20,NE,34,1.0,3.0,93,0.00,,,0.32,LWC2 V0.39 B123,2013-04-04 11:48:00,
2013-04-04 05:53:00,39.3,37.4,30.20,NE,41,2.0,3.0,93,0.00,,,0.33,LWC2 V0.39 B123,2013-04-04 11:53:00,
2013-04-04 05:59:00,39.4,37.3,30.20,NE,37,1.0,4.0,92,0.00,,,0.32,LWC2 V0.39 B123,2013-04-04 11:59:00,
2013-04-04 06:04:00,39.4,37.3,30.19,NE,39,1.0,1.0,92,0.00,,,0.32,LWC2 V0.39 B123,2013-04-04 12:04:00,
2013-04-04 06:09:00,39.4,37.3,30.20,NE,35,2.0,4.0,92,0.00,,,0.32,LWC2 V0.39 B123,2013-04-04 12:09:00,
2013-04-04 06:14:00,39.3,37.2,30.19,NE,38,1.0,1.0,92,0.00,,,0.32,LWC2 V0.39 B123,2013-04-04 12:14:00,
2013-04-04 06:20:00,39.3,37.2,30.19,NE,42,1.0,2.0,92,0.00,,,0.32,LWC2 V0.39 B123,2013-04-04 12:20:00,
2013-04-04 06:25:00,39.4,37.0,30.19,NE,39,1.0,3.0,91,0.00,,,0.32,LWC2 V0.39 B123,2013-04-04 12:25:00,
2013-04-04 06:30:00,39.4,37.0,30.19,NNE,14,2.0,2.0,91,0.00,,,0.32,LWC2 V0.39 B123,2013-04-04 12:30:00,
2013-04-04 06:35:00,39.4,37.0,30.19,NNE,27,0.0,1.0,91,0.00,,,0.32,LWC2 V0.39 B123,2013-04-04 12:35:00,
2013-04-04 06:40:00,39.5,37.1,30.19,NE,44,1.0,3.0,91,0.00,,,0.32,LWC2 V0.39 B123,2013-04-04 12:40:00,
2013-04-04 06:45:00,39.5,37.1,30.19,NNE,32,2.0,2.0,91,0.00,,,0.32,LWC2 V0.39 B123,2013-04-04 12:45:00,
2013-04-04 06:50:00,39.6,37.2,30.19,NNE,32,1.0,3.0,91,0.00,,,0.32,LWC2 V0.39 B123,2013-04-04 12:50:00,
2013-04-04 06:55:00,39.7,37.3,30.19,NE,39,0.0,1.0,91,0.00,,,0.32,LWC2 V0.39 B123,2013-04-04 12:55:00,
2013-04-04 07:00:00,39.8,37.4,30.19,North,5,0.0,0.0,91,0.00,,,0.32,LWC2 V0.39 B123,2013-04-04 13:00:00,
2013-04-04 07:05:00,39.9,37.5,30.20,NNE,31,1.0,2.0,91,0.00,,,0.32,LWC2 V0.39 B123,2013-04-04 13:05:00,
2013-04-04 07:10:00,39.9,37.5,30.20,North,351,2.0,2.0,91,0.00,,,0.32,LWC2 V0.39 B123,2013-04-04 13:10:00,
2013-04-04 07:16:00,40.1,37.7,30.19,NNE,31,0.0,1.0,91,0.00,,,0.32,LWC2 V0.39 B123,2013-04-04 13:16:00,
2013-04-04 07:21:00,40.3,37.9,30.19,NE,34,0.0,1.0,91,0.00,,,0.32,LWC2 V0.39 B123,2013-04-04 13:21:00,
2013-04-04 07:26:00,40.5,38.1,30.19,NNE,22,0.0,2.0,91,0.00,,,0.32,LWC2 V0.39 B123,2013-04-04 13:26:00,
2013-04-04 07:31:00,40.7,38.0,30.19,NNE,18,2.0,2.0,90,0.00,,,0.32,LWC2 V0.39 B123,2013-04-04 13:31:00,
2013-04-04 07:36:00,40.8,37.8,30.19,NNE,18,1.0,2.0,89,0.00,,,0.32,LWC2 V0.39 B123,2013-04-04 13:36:00,
2013-04-04 07:42:00,41.1,37.8,30.19,NNE,18,1.0,3.0,88,0.00,,,0.32,LWC2 V0.39 B123,2013-04-04 13:42:00,
2013-04-04 07:47:00,41.3,38.0,30.19,NNE,23,1.0,3.0,88,0.00,,,0.32,LWC2 V0.39 B123,2013-04-04 13:47:00,
2013-04-04 07:52:00,41.4,38.1,30.19,NE,50,2.0,2.0,88,0.00,,,0.33,LWC2 V0.39 B123,2013-04-04 13:52:00,
2013-04-04 07:57:00,41.6,38.3,30.19,NE,56,1.0,1.0,88,0.00,,,0.32,LWC2 V0.39 B123,2013-04-04 13:57:00,
2013-04-04 08:03:00,41.9,38.3,30.19,NE,49,3.0,4.0,87,0.00,,,0.32,LWC2 V0.39 B123,2013-04-04 14:03:00,
2013-04-04 08:08:00,42.2,38.3,30.19,NE,53,2.0,4.0,86,0.00,,,0.32,LWC2 V0.39 B123,2013-04-04 14:08:00,
2013-04-04 08:13:00,42.5,38.0,30.19,NE,46,2.0,7.0,84,0.00,,,0.32,LWC2 V0.39 B123,2013-04-04 14:13:00,
2013-04-04 08:18:00,43.3,39.4,30.19,NW,308,1.0,3.0,86,0.00,,,0.32,LWC2 V0.39 B123,2013-04-04 14:18:00,
2013-04-04 08:23:00,43.9,39.4,30.19,NE,51,8.0,8.0,84,0.00,,,0.32,LWC2 V0.39 B123,2013-04-04 14:23:00,
2013-04-04 08:28:00,44.3,39.2,30.19,NNE,29,3.0,7.0,82,0.00,,,0.32,LWC2 V0.39 B123,2013-04-04 14:28:00,
2013-04-04 08:33:00,44.8,40.0,30.19,North,356,1.0,5.0,83,0.00,,,0.32,LWC2 V0.39 B123,2013-04-04 14:33:00,
2013-04-04 08:38:00,45.5,40.6,30.19,WNW,284,1.0,7.0,83,0.00,,,0.32,LWC2 V0.39 B123,2013-04-04 14:38:00,
2013-04-04 08:43:00,45.8,40.0,30.19,North,0,0.0,2.0,80,0.00,,,0.32,LWC2 V0.39 B123,2013-04-04 14:43:00,
2013-04-04 08:48:00,45.8,39.3,30.19,NNE,18,6.0,6.0,78,0.00,,,0.32,LWC2 V0.39 B123,2013-04-04 14:48:00,
2013-04-04 08:54:00,45.6,39.8,30.19,NE,51,2.0,4.0,80,0.00,,,0.32,LWC2 V0.39 B123,2013-04-04 14:54:00,
2013-04-04 08:59:00,45.7,39.2,30.19,NNE,26,7.0,7.0,78,0.00,,,0.32,LWC2 V0.39 B123,2013-04-04 14:59:00,
2013-04-04 09:05:00,45.9,39.8,30.19,NNE,15,4.0,4.0,79,0.00,,,0.32,LWC2 V0.39 B123,2013-04-04 15:05:00,
2013-04-04 09:11:00,46.4,39.9,30.19,NE,54,7.0,7.0,78,0.00,,,0.32,LWC2 V0.39 B123,2013-04-04 15:11:00,
2013-04-04 09:17:00,46.7,39.5,30.19,ENE,58,4.0,7.0,76,0.00,,,0.32,LWC2 V0.39 B123,2013-04-04 15:17:00,
2013-04-04 09:22:00,46.8,39.3,30.19,North,5,3.0,6.0,75,0.00,,,0.32,LWC2 V0.39 B123,2013-04-04 15:22:00,
2013-04-04 09:27:00,47.2,39.7,30.19,NE,39,1.0,4.0,75,0.00,,,0.32,LWC2 V0.39 B123,2013-04-04 15:27:00,
2013-04-04 09:33:00,47.2,39.0,30.19,NE,39,4.0,5.0,73,0.00,,,0.32,LWC2 V0.39 B123,2013-04-04 15:33:00,
2013-04-04 09:38:00,47.5,38.6,30.19,ENE,57,2.0,6.0,71,0.00,,,0.32,LWC2 V0.39 B123,2013-04-04 15:38:00,
2013-04-04 09:43:00,47.5,38.9,30.19,North,0,4.0,6.0,72,0.00,,,0.32,LWC2 V0.39 B123,2013-04-04 15:43:00,
2013-04-04 09:48:00,47.4,38.8,30.20,NNE,32,4.0,6.0,72,0.00,,,0.33,LWC2 V0.39 B123,2013-04-04 15:48:00,
2013-04-04 09:53:00,47.8,40.3,30.19,NNE,20,1.0,5.0,75,0.00,,,0.32,LWC2 V0.39 B123,2013-04-04 15:53:00,
2013-04-04 09:58:00,48.0,38.3,30.20,NNE,32,2.0,3.0,69,0.00,,,0.33,LWC2 V0.39 B123,2013-04-04 15:58:00,
2013-04-04 10:03:00,48.6,40.0,30.20,NE,38,4.0,6.0,72,0.00,,,0.32,LWC2 V0.39 B123,2013-04-04 16:03:00,
2013-04-04 10:08:00,48.9,39.6,30.20,NNW,344,3.0,4.0,70,0.00,,,0.32,LWC2 V0.39 B123,2013-04-04 16:08:00,
2013-04-04 10:13:00,48.9,39.2,30.20,NE,46,4.0,8.0,69,0.00,,,0.32,LWC2 V0.39 B123,2013-04-04 16:13:00,
2013-04-04 10:18:00,48.8,38.0,30.20,WNW,293,2.0,3.0,66,0.00,,,0.32,LWC2 V0.39 B123,2013-04-04 16:18:00,
2013-04-04 10:23:00,49.1,38.2,30.20,ENE,73,2.0,4.0,66,0.00,,,0.32,LWC2 V0.39 B123,2013-04-04 16:23:00,
2013-04-04 10:29:00,49.5,39.8,30.20,ENE,68,0.0,3.0,69,0.00,,,0.32,LWC2 V0.39 B123,2013-04-04 16:29:00,
2013-04-04 10:34:00,49.8,37.3,30.20,NNE,20,1.0,5.0,62,0.00,,,0.32,LWC2 V0.39 B123,2013-04-04 16:34:00,
2013-04-04 10:39:00,49.7,38.8,30.20,NE,49,3.0,5.0,66,0.00,,,0.32,LWC2 V0.39 B123,2013-04-04 16:39:00,
2013-04-04 10:44:00,49.7,39.2,30.20,NE,44,2.0,5.0,67,0.00,,,0.32,LWC2 V0.39 B123,2013-04-04 16:44:00,
2013-04-04 10:49:00,50.2,39.3,30.20,WNW,288,4.0,7.0,66,0.00,,,0.32,LWC2 V0.39 B123,2013-04-04 16:49:00,
2013-04-04 10:54:00,50.5,39.2,30.20,East,88,2.0,3.0,65,0.00,,,0.32,LWC2 V0.39 B123,2013-04-04 16:54:00,
2013-04-04 10:59:00,50.8,39.1,30.20,NNE,25,2.0,5.0,64,0.00,,,0.32,LWC2 V0.39 B123,2013-04-04 16:59:00,
2013-04-04 11:05:00,51.0,39.3,30.20,NNE,31,4.0,4.0,64,0.00,,,0.32,LWC2 V0.39 B123,2013-04-04 17:05:00,
2013-04-04 11:10:00,50.9,38.8,30.20,NNE,26,4.0,6.0,63,0.00,,,0.32,LWC2 V0.39 B123,2013-04-04 17:10:00,
2013-04-04 11:15:00,51.0,38.0,30.20,NE,40,3.0,6.0,61,0.00,,,0.32,LWC2 V0.39 B123,2013-04-04 17:15:00,
2013-04-04 11:20:00,50.8,37.0,30.20,NNE,32,1.0,5.0,59,0.00,,,0.32,LWC2 V0.39 B123,2013-04-04 17:20:00,
2013-04-04 11:25:00,50.8,37.8,30.20,NNE,16,3.0,4.0,61,0.00,,,0.32,LWC2 V0.39 B123,2013-04-04 17:25:00,
2013-04-04 11:30:00,51.0,38.4,30.20,NNE,31,1.0,6.0,62,0.00,,,0.32,LWC2 V0.39 B123,2013-04-04 17:30:00,
2013-04-04 11:36:00,51.1,37.7,30.20,NE,41,3.0,3.0,60,0.00,,,0.32,LWC2 V0.39 B123,2013-04-04 17:36:00,
2013-04-04 11:42:00,51.1,38.9,30.19,NE,55,3.0,4.0,63,0.00,,,0.32,LWC2 V0.39 B123,2013-04-04 17:42:00,
2013-04-04 11:48:00,51.6,39.4,30.19,North,352,2.0,4.0,63,0.00,,,0.32,LWC2 V0.39 B123,2013-04-04 17:48:00,
2013-04-04 11:53:00,51.8,38.4,30.19,NE,53,0.0,3.0,60,0.00,,,0.32,LWC2 V0.39 B123,2013-04-04 17:53:00,
2013-04-04 11:58:00,52.2,38.3,30.19,NE,44,2.0,6.0,59,0.00,,,0.32,LWC2 V0.39 B123,2013-04-04 17:58:00,
2013-04-04 12:03:00,52.0,37.7,30.19,NE,36,3.0,3.0,58,0.00,,,0.32,LWC2 V0.39 B123,2013-04-04 18:03:00,
2013-04-04 12:08:00,52.4,38.1,30.19,ENE,59,2.0,4.0,58,0.00,,,0.32,LWC2 V0.39 B123,2013-04-04 18:08:00,
2013-04-04 12:13:00,52.5,36.8,30.18,NNE,21,0.0,2.0,55,0.00,,,0.32,LWC2 V0.39 B123,2013-04-04 18:13:00,
2013-04-04 12:18:00,52.9,38.1,30.18,ENE,68,4.0,5.0,57,0.00,,,0.32,LWC2 V0.39 B123,2013-04-04 18:18:00,
2013-04-04 12:23:00,53.3,37.5,30.18,NNE,20,2.0,3.0,55,0.00,,,0.32,LWC2 V0.39 B123,2013-04-04 18:23:00,
2013-04-04 12:28:00,53.4,36.7,30.18,North,8,3.0,5.0,53,0.00,,,0.32,LWC2 V0.39 B123,2013-04-04 18:28:00,
2013-04-04 12:33:00,53.5,37.3,30.18,ENE,62,3.0,7.0,54,0.00,,,0.33,LWC2 V0.39 B123,2013-04-04 18:33:00,
2013-04-04 12:38:00,53.9,36.7,30.18,NNE,22,3.0,5.0,52,0.00,,,0.32,LWC2 V0.39 B123,2013-04-04 18:38:00,
2013-04-04 12:43:00,54.1,36.9,30.18,ENE,75,2.0,7.0,52,0.00,,,0.32,LWC2 V0.39 B123,2013-04-04 18:43:00,
2013-04-04 12:48:00,54.5,36.2,30.18,ENE,59,3.0,8.0,50,0.00,,,0.32,LWC2 V0.39 B123,2013-04-04 18:48:00,
2013-04-04 12:53:00,54.7,37.4,30.17,NNE,22,5.0,7.0,52,0.00,,,0.32,LWC2 V0.39 B123,2013-04-04 18:53:00,
2013-04-04 12:58:00,54.7,36.9,30.17,NE,56,4.0,6.0,51,0.00,,,0.33,LWC2 V0.39 B123,2013-04-04 18:58:00,
2013-04-04 13:03:00,54.9,37.1,30.17,NE,47,4.0,5.0,51,0.00,,,0.32,LWC2 V0.39 B123,2013-04-04 19:03:00,
2013-04-04 13:08:00,55.4,37.1,30.17,NNE,19,1.0,6.0,50,0.00,,,0.32,LWC2 V0.39 B123,2013-04-04 19:08:00,
2013-04-04 13:13:00,55.6,38.3,30.16,WNW,298,2.0,6.0,52,0.00,,,0.32,LWC2 V0.39 B123,2013-04-04 19:13:00,
2013-04-04 13:18:00,55.9,37.5,30.16,ENE,66,2.0,4.0,50,0.00,,,0.32,LWC2 V0.39 B123,2013-04-04 19:18:00,
2013-04-04 13:23:00,56.1,37.2,30.16,ENE,65,2.0,6.0,49,0.00,,,0.32,LWC2 V0.39 B123,2013-04-04 19:23:00,
2013-04-04 13:28:00,56.2,35.1,30.16,East,82,2.0,4.0,45,0.00,,,0.32,LWC2 V0.39 B123,2013-04-04 19:28:00,
2013-04-04 13:33:00,57.0,35.9,30.16,ENE,65,3.0,5.0,45,0.00,,,0.32,LWC2 V0.39 B123,2013-04-04 19:33:00,
2013-04-04 13:38:00,56.9,36.3,30.16,East,90,1.0,4.0,46,0.00,,,0.32,LWC2 V0.39 B123,2013-04-04 19:38:00,
2013-04-04 13:43:00,56.8,35.1,30.16,NNE,25,2.0,6.0,44,0.00,,,0.32,LWC2 V0.39 B123,2013-04-04 19:43:00,
2013-04-04 13:48:00,56.7,36.7,30.15,SE,133,2.0,7.0,47,0.00,,,0.32,LWC2 V0.39 B123,2013-04-04 19:48:00,
2013-04-04 13:53:00,56.8,35.7,30.15,ENE,69,1.0,3.0,45,0.00,,,0.32,LWC2 V0.39 B123,2013-04-04 19:53:00,
2013-04-04 13:58:00,56.9,36.3,30.15,ENE,75,2.0,2.0,46,0.00,,,0.32,LWC2 V0.39 B123,2013-04-04 19:58:00,
2013-04-04 14:03:00,56.5,34.9,30.15,ENE,78,1.0,4.0,44,0.00,,,0.32,LWC2 V0.39 B123,2013-04-04 20:03:00,
2013-04-04 14:08:00,56.7,36.2,30.15,NNE,19,2.0,4.0,46,0.00,,,0.32,LWC2 V0.39 B123,2013-04-04 20:08:00,
2013-04-04 14:13:00,56.8,36.2,30.14,East,101,2.0,4.0,46,0.00,,,0.32,LWC2 V0.39 B123,2013-04-04 20:13:00,
2013-04-04 14:18:00,56.8,36.2,30.14,NNE,25,5.0,8.0,46,0.00,,,0.32,LWC2 V0.39 B123,2013-04-04 20:18:00,
2013-04-04 14:23:00,56.7,34.5,30.14,NNE,18,4.0,8.0,43,0.00,,,0.32,LWC2 V0.39 B123,2013-04-04 20:23:00,
2013-04-04 14:29:00,56.8,35.1,30.14,NNE,19,2.0,5.0,44,0.00,,,0.32,LWC2 V0.39 B123,2013-04-04 20:29:00,
2013-04-04 14:34:00,57.1,36.0,30.13,NNE,29,3.0,5.0,45,0.00,,,0.32,LWC2 V0.39 B123,2013-04-04 20:34:00,
2013-04-04 14:39:00,57.4,34.5,30.13,NE,46,3.0,8.0,42,0.00,,,0.32,LWC2 V0.39 B123,2013-04-04 20:39:00,
2013-04-04 14:44:00,57.6,35.8,30.13,ENE,65,1.0,3.0,44,0.00,,,0.32,LWC2 V0.39 B123,2013-04-04 20:44:00,
2013-04-04 14:50:00,58.2,34.0,30.13,North,359,2.0,3.0,40,0.00,,,0.32,LWC2 V0.39 B123,2013-04-04 20:50:00,
2013-04-04 14:55:00,58.5,36.1,30.12,NE,46,3.0,5.0,43,0.00,,,0.32,LWC2 V0.39 B123,2013-04-04 20:55:00,
2013-04-04 15:00:00,58.7,34.4,30.12,NW,307,2.0,3.0,40,0.00,,,0.32,LWC2 V0.39 B123,2013-04-04 21:00:00,
2013-04-04 15:05:00,58.9,35.8,30.12,WNW,297,2.0,2.0,42,0.00,,,0.32,LWC2 V0.39 B123,2013-04-04 21:05:00,
2013-04-04 15:10:00,59.1,34.2,30.12,NE,53,3.0,4.0,39,0.00,,,0.32,LWC2 V0.39 B123,2013-04-04 21:10:00,
2013-04-04 15:15:00,59.1,34.8,30.12,ESE,106,2.0,4.0,40,0.00,,,0.32,LWC2 V0.39 B123,2013-04-04 21:15:00,
2013-04-04 15:20:00,59.3,36.2,30.12,East,96,1.0,2.0,42,0.00,,,0.32,LWC2 V0.39 B123,2013-04-04 21:20:00,
2013-04-04 15:25:00,59.3,34.3,30.12,North,0,3.0,5.0,39,0.00,,,0.32,LWC2 V0.39 B123,2013-04-04 21:25:00,
2013-04-04 15:30:00,59.5,35.8,30.12,ESE,104,2.0,2.0,41,0.00,,,0.32,LWC2 V0.39 B123,2013-04-04 21:30:00,
2013-04-04 15:35:00,60.0,36.8,30.11,ENE,68,3.0,5.0,42,0.00,,,0.32,LWC2 V0.39 B123,2013-04-04 21:35:00,
2013-04-04 15:40:00,59.5,35.8,30.11,ENE,72,2.0,3.0,41,0.00,,,0.32,LWC2 V0.39 B123,2013-04-04 21:40:00,
2013-04-04 15:45:00,59.5,37.0,30.11,ENE,60,1.0,5.0,43,0.00,,,0.32,LWC2 V0.39 B123,2013-04-04 21:45:00,
2013-04-04 15:50:00,59.4,36.3,30.11,NE,46,3.0,6.0,42,0.00,,,0.32,LWC2 V0.39 B123,2013-04-04 21:50:00,
2013-04-04 15:55:00,59.4,35.7,30.11,NNE,25,3.0,7.0,41,0.00,,,0.32,LWC2 V0.39 B123,2013-04-04 21:55:00,
2013-04-04 16:00:00,59.6,37.1,30.11,NE,44,2.0,2.0,43,0.00,,,0.32,LWC2 V0.39 B123,2013-04-04 22:00:00,
2013-04-04 16:05:00,59.9,35.5,30.11,NNE,21,3.0,5.0,40,0.00,,,0.32,LWC2 V0.39 B123,2013-04-04 22:05:00,
2013-04-04 16:10:00,59.9,36.1,30.11,East,91,1.0,2.0,41,0.00,,,0.32,LWC2 V0.39 B123,2013-04-04 22:10:00,
2013-04-04 16:15:00,60.0,36.8,30.11,SE,126,3.0,3.0,42,0.00,,,0.32,LWC2 V0.39 B123,2013-04-04 22:15:00,
2013-04-04 16:20:00,59.7,35.3,30.10,ENE,77,2.0,2.0,40,0.00,,,0.32,LWC2 V0.39 B123,2013-04-04 22:20:00,
2013-04-04 16:25:00,60.0,36.8,30.10,East,86,2.0,3.0,42,0.00,,,0.32,LWC2 V0.39 B123,2013-04-04 22:25:00,
2013-04-04 16:31:00,60.0,36.2,30.10,NE,41,1.0,2.0,41,0.00,,,0.32,LWC2 V0.39 B123,2013-04-04 22:31:00,
2013-04-04 16:37:00,60.3,36.5,30.10,NNE,29,2.0,4.0,41,0.00,,,0.32,LWC2 V0.39 B123,2013-04-04 22:37:00,
2013-04-04 16:42:00,60.3,35.9,30.10,NE,44,1.0,2.0,40,0.00,,,0.32,LWC2 V0.39 B123,2013-04-04 22:42:00,
2013-04-04 16:47:00,60.3,36.5,30.10,NE,40,1.0,3.0,41,0.00,,,0.32,LWC2 V0.39 B123,2013-04-04 22:47:00,
2013-04-04 16:52:00,60.4,36.6,30.10,ENE,66,2.0,3.0,41,0.00,,,0.32,LWC2 V0.39 B123,2013-04-04 22:52:00,
2013-04-04 16:57:00,60.2,35.8,30.11,NNE,14,3.0,3.0,40,0.00,,,0.32,LWC2 V0.39 B123,2013-04-04 22:57:00,
2013-04-04 17:02:00,60.2,36.4,30.11,NE,47,3.0,5.0,41,0.00,,,0.32,LWC2 V0.39 B123,2013-04-04 23:02:00,
2013-04-04 17:08:00,60.3,35.9,30.11,North,4,3.0,3.0,40,0.00,,,0.32,LWC2 V0.39 B123,2013-04-04 23:08:00,
2013-04-04 17:13:00,60.2,36.4,30.11,East,79,4.0,4.0,41,0.00,,,0.32,LWC2 V0.39 B123,2013-04-04 23:13:00,
2013-04-04 17:18:00,60.0,37.4,30.11,NNE,21,2.0,4.0,43,0.00,,,0.32,LWC2 V0.39 B123,2013-04-04 23:18:00,
2013-04-04 17:23:00,59.9,36.1,30.11,North,358,1.0,4.0,41,0.00,,,0.33,LWC2 V0.39 B123,2013-04-04 23:23:00,
2013-04-04 17:28:00,59.9,36.8,30.11,North,11,2.0,2.0,42,0.00,,,0.32,LWC2 V0.39 B123,2013-04-04 23:28:00,
2013-04-04 17:33:00,60.1,36.9,30.10,NNE,31,2.0,5.0,42,0.00,,,0.32,LWC2 V0.39 B123,2013-04-04 23:33:00,
2013-04-04 17:38:00,59.9,36.8,30.11,NE,40,1.0,1.0,42,0.00,,,0.33,LWC2 V0.39 B123,2013-04-04 23:38:00,
2013-04-04 17:43:00,59.7,36.6,30.11,North,5,2.0,3.0,42,0.00,,,0.32,LWC2 V0.39 B123,2013-04-04 23:43:00,
2013-04-04 17:48:00,59.6,36.5,30.11,NNE,20,2.0,3.0,42,0.00,,,0.32,LWC2 V0.39 B123,2013-04-04 23:48:00,
2013-04-04 17:54:00,59.4,37.5,30.11,NE,46,2.0,4.0,44,0.00,,,0.32,LWC2 V0.39 B123,2013-04-04 23:54:00,
2013-04-04 18:00:00,59.0,37.7,30.11,NE,34,2.0,3.0,45,0.00,,,0.32,LWC2 V0.39 B123,2013-04-05 00:00:00,
2013-04-04 18:06:00,58.8,37.5,30.11,NE,36,2.0,3.0,45,0.00,,,0.32,LWC2 V0.39 B123,2013-04-05 00:06:00,
2013-04-04 18:12:00,58.5,37.2,30.11,ENE,74,2.0,2.0,45,0.00,,,0.32,LWC2 V0.39 B123,2013-04-05 00:12:00,
2013-04-04 18:17:00,58.2,37.0,30.11,NNE,20,0.0,2.0,45,0.00,,,0.32,LWC2 V0.39 B123,2013-04-05 00:17:00,
2013-04-04 18:22:00,58.2,38.1,30.11,NNE,20,0.0,1.0,47,0.00,,,0.32,LWC2 V0.39 B123,2013-04-05 00:22:00,
2013-04-04 18:27:00,58.1,37.4,30.11,North,11,0.0,1.0,46,0.00,,,0.32,LWC2 V0.39 B123,2013-04-05 00:27:00,
2013-04-04 18:32:00,57.9,37.8,30.11,NNE,20,1.0,3.0,47,0.00,,,0.32,LWC2 V0.39 B123,2013-04-05 00:32:00,
2013-04-04 18:37:00,57.6,38.6,30.11,NNE,23,2.0,3.0,49,0.00,,,0.32,LWC2 V0.39 B123,2013-04-05 00:37:00,
2013-04-04 18:43:00,57.1,38.1,30.11,NNE,23,0.0,0.0,49,0.00,,,0.32,LWC2 V0.39 B123,2013-04-05 00:43:00,
2013-04-04 18:48:00,56.6,38.7,30.11,NNE,23,0.0,0.0,51,0.00,,,0.32,LWC2 V0.39 B123,2013-04-05 00:48:00,
2013-04-04 18:53:00,56.0,38.6,30.11,NNE,23,0.0,0.0,52,0.00,,,0.32,LWC2 V0.39 B123,2013-04-05 00:53:00,
2013-04-04 18:58:00,55.5,38.6,30.11,NNE,15,0.0,0.0,53,0.00,,,0.32,LWC2 V0.39 B123,2013-04-05 00:58:00,
2013-04-04 19:03:00,55.1,38.3,30.11,NNE,15,0.0,0.0,53,0.00,,,0.32,LWC2 V0.39 B123,2013-04-05 01:03:00,
2013-04-04 19:08:00,54.7,38.4,30.11,NNE,14,0.0,0.0,54,0.00,,,0.32,LWC2 V0.39 B123,2013-04-05 01:08:00,
2013-04-04 19:13:00,54.3,38.5,30.11,NNE,13,0.0,1.0,55,0.00,,,0.32,LWC2 V0.39 B123,2013-04-05 01:13:00,
2013-04-04 19:18:00,53.9,38.6,30.11,NNE,13,0.0,1.0,56,0.00,,,0.32,LWC2 V0.39 B123,2013-04-05 01:18:00,
2013-04-04 19:23:00,53.3,39.3,30.12,North,11,1.0,1.0,59,0.00,,,0.32,LWC2 V0.39 B123,2013-04-05 01:23:00,
2013-04-04 19:28:00,52.8,39.7,30.12,North,7,1.0,1.0,61,0.00,,,0.32,LWC2 V0.39 B123,2013-04-05 01:28:00,
2013-04-04 19:33:00,52.5,40.7,30.12,NW,304,2.0,4.0,64,0.00,,,0.32,LWC2 V0.39 B123,2013-04-05 01:33:00,
2013-04-04 19:38:00,52.2,41.2,30.13,NW,322,2.0,3.0,66,0.00,,,0.32,LWC2 V0.39 B123,2013-04-05 01:38:00,
2013-04-04 19:43:00,51.8,41.6,30.13,NW,316,2.0,2.0,68,0.00,,,0.32,LWC2 V0.39 B123,2013-04-05 01:43:00,
2013-04-04 19:48:00,51.4,41.9,30.14,NW,321,2.0,3.0,70,0.00,,,0.32,LWC2 V0.39 B123,2013-04-05 01:48:00,
2013-04-04 19:53:00,51.3,42.6,30.14,NW,323,0.0,2.0,72,0.00,,,0.32,LWC2 V0.39 B123,2013-04-05 01:53:00,
2013-04-04 19:58:00,51.3,42.6,30.14,WNW,297,3.0,3.0,72,0.00,,,0.32,LWC2 V0.39 B123,2013-04-05 01:58:00,
2013-04-04 20:03:00,51.1,42.8,30.14,NW,315,1.0,3.0,73,0.00,,,0.32,LWC2 V0.39 B123,2013-04-05 02:03:00,
2013-04-04 20:08:00,51.0,42.7,30.14,NW,319,1.0,1.0,73,0.00,,,0.32,LWC2 V0.39 B123,2013-04-05 02:08:00,
2013-04-04 20:13:00,50.9,42.9,30.14,ENE,71,1.0,6.0,74,0.00,,,0.33,LWC2 V0.39 B123,2013-04-05 02:13:00,
2013-04-04 20:18:00,50.8,42.8,30.15,NW,326,3.0,4.0,74,0.00,,,0.33,LWC2 V0.39 B123,2013-04-05 02:18:00,
2013-04-04 20:23:00,50.9,42.9,30.15,NNW,328,0.0,4.0,74,0.00,,,0.32,LWC2 V0.39 B123,2013-04-05 02:23:00,
2013-04-04 20:28:00,50.8,42.8,30.15,NE,44,1.0,5.0,74,0.00,,,0.32,LWC2 V0.39 B123,2013-04-05 02:28:00,
2013-04-04 20:33:00,50.7,42.7,30.15,NW,322,1.0,2.0,74,0.00,,,0.32,LWC2 V0.39 B123,2013-04-05 02:33:00,
2013-04-04 20:38:00,50.5,42.9,30.15,NW,322,1.0,2.0,75,0.00,,,0.32,LWC2 V0.39 B123,2013-04-05 02:38:00,
2013-04-04 20:43:00,50.3,42.7,30.15,NW,314,2.0,3.0,75,0.00,,,0.32,LWC2 V0.39 B123,2013-04-05 02:43:00,
2013-04-04 20:48:00,50.0,42.7,30.16,NW,307,1.0,3.0,76,0.00,,,0.33,LWC2 V0.39 B123,2013-04-05 02:48:00,
2013-04-04 20:53:00,49.9,42.6,30.16,NW,316,1.0,3.0,76,0.00,,,0.33,LWC2 V0.39 B123,2013-04-05 02:53:00,
2013-04-04 20:58:00,49.6,42.7,30.16,NW,321,2.0,2.0,77,0.00,,,0.32,LWC2 V0.39 B123,2013-04-05 02:58:00,
2013-04-04 21:03:00,49.4,42.5,30.16,NW,307,1.0,3.0,77,0.00,,,0.32,LWC2 V0.39 B123,2013-04-05 03:03:00,
2013-04-04 21:08:00,49.2,42.6,30.16,NW,314,1.0,3.0,78,0.00,,,0.33,LWC2 V0.39 B123,2013-04-05 03:08:00,
2013-04-04 21:13:00,48.8,42.6,30.16,NW,318,1.0,1.0,79,0.00,,,0.32,LWC2 V0.39 B123,2013-04-05 03:13:00,
2013-04-04 21:18:00,48.4,42.5,30.16,NW,318,0.0,1.0,80,0.00,,,0.32,LWC2 V0.39 B123,2013-04-05 03:18:00,
2013-04-04 21:23:00,48.0,42.1,30.16,NW,321,0.0,1.0,80,0.00,,,0.32,LWC2 V0.39 B123,2013-04-05 03:23:00,
2013-04-04 21:28:00,47.7,42.2,30.16,NW,321,0.0,1.0,81,0.00,,,0.32,LWC2 V0.39 B123,2013-04-05 03:28:00,
2013-04-04 21:33:00,47.4,41.9,30.17,NW,319,1.0,1.0,81,0.00,,,0.32,LWC2 V0.39 B123,2013-04-05 03:33:00,
2013-04-04 21:38:00,47.2,42.0,30.17,NW,325,1.0,1.0,82,0.00,,,0.32,LWC2 V0.39 B123,2013-04-05 03:38:00,
2013-04-04 21:43:00,47.1,41.9,30.17,WNW,301,2.0,2.0,82,0.00,,,0.32,LWC2 V0.39 B123,2013-04-05 03:43:00,
2013-04-04 21:48:00,47.2,42.0,30.17,NW,304,1.0,2.0,82,0.00,,,0.33,LWC2 V0.39 B123,2013-04-05 03:48:00,
2013-04-04 21:53:00,47.4,41.9,30.17,NW,322,0.0,2.0,81,0.00,,,0.32,LWC2 V0.39 B123,2013-04-05 03:53:00,
2013-04-04 21:58:00,47.6,42.1,30.17,NW,309,1.0,2.0,81,0.00,,,0.33,LWC2 V0.39 B123,2013-04-05 03:58:00,
2013-04-04 22:00:00,47.6,42.1,30.17,NNW,327,1.0,3.0,81,0.00,,,0.32,LWC2 V0.39 B123,2013-04-05 04:00:00,
2013-04-04 22:01:00,47.6,42.1,30.17,North,1,0.0,2.0,81,0.00,,,0.32,LWC2 V0.39 B123,2013-04-05 04:01:00,
2013-04-04 22:03:00,47.6,41.7,30.17,North,0,0.0,2.0,80,0.00,,,0.32,LWC2 V0.39 B123,2013-04-05 04:03:00,
2013-04-04 22:08:00,47.3,41.8,30.17,NNE,18,0.0,2.0,81,0.00,,,0.32,LWC2 V0.39 B123,2013-04-05 04:08:00,
2013-04-04 22:13:00,47.2,41.7,30.17,NNE,18,0.0,1.0,81,0.00,,,0.32,LWC2 V0.39 B123,2013-04-05 04:13:00,
2013-04-04 22:18:00,47.0,41.5,30.17,NNE,18,0.0,1.0,81,0.00,,,0.32,LWC2 V0.39 B123,2013-04-05 04:18:00,
2013-04-04 22:23:00,46.8,41.6,30.17,NW,315,1.0,2.0,82,0.00,,,0.32,LWC2 V0.39 B123,2013-04-05 04:23:00,
2013-04-04 22:28:00,46.3,41.1,30.17,NW,316,0.0,1.0,82,0.00,,,0.32,LWC2 V0.39 B123,2013-04-05 04:28:00,
2013-04-04 22:32:00,45.9,41.0,30.16,NW,316,0.0,0.0,83,0.00,,,0.32,LWC2 V0.39 B123,2013-04-05 04:32:00,
2013-04-04 22:37:00,45.8,41.2,30.17,NW,316,0.0,0.0,84,0.00,,,0.32,LWC2 V0.39 B123,2013-04-05 04:37:00,
2013-04-04 22:42:00,45.9,41.3,30.16,NW,316,1.0,1.0,84,0.00,,,0.33,LWC2 V0.39 B123,2013-04-05 04:42:00,
2013-04-04 22:47:00,45.9,41.3,30.17,NW,317,0.0,1.0,84,0.00,,,0.33,LWC2 V0.39 B123,2013-04-05 04:47:00,
2013-04-04 22:52:00,45.9,41.3,30.17,NW,319,0.0,0.0,84,0.00,,,0.33,LWC2 V0.39 B123,2013-04-05 04:52:00,
2013-04-04 22:57:00,45.7,40.8,30.17,NW,317,1.0,1.0,83,0.00,,,0.32,LWC2 V0.39 B123,2013-04-05 04:57:00,
2013-04-04 23:02:00,45.4,40.9,30.17,NW,321,1.0,1.0,84,0.00,,,0.00,LWC2 V0.39 B123,2013-04-05 05:02:00,
2013-04-04 23:07:00,44.9,40.7,30.17,NW,319,0.0,1.0,85,0.00,,,0.00,LWC2 V0.39 B123,2013-04-05 05:07:00,
2013-04-04 23:12:00,44.7,40.8,30.17,NW,321,1.0,1.0,86,0.00,,,0.00,LWC2 V0.39 B123,2013-04-05 05:12:00,
2013-04-04 23:17:00,44.6,40.7,30.17,NW,319,1.0,1.0,86,0.00,,,0.00,LWC2 V0.39 B123,2013-04-05 05:17:00,
2013-04-04 23:22:00,44.4,40.5,30.17,NW,319,1.0,1.0,86,0.00,,,0.00,LWC2 V0.39 B123,2013-04-05 05:22:00,
2013-04-04 23:27:00,44.2,40.3,30.17,NW,318,1.0,1.0,86,0.00,,,0.00,LWC2 V0.39 B123,2013-04-05 05:27:00,
2013-04-04 23:32:00,44.3,40.4,30.17,NW,315,1.0,1.0,86,0.00,,,0.00,LWC2 V0.39 B123,2013-04-05 05:32:00,
2013-04-04 23:37:00,44.4,40.5,30.17,NW,314,1.0,1.0,86,0.00,,,0.00,LWC2 V0.39 B123,2013-04-05 05:37:00,
2013-04-04 23:42:00,44.3,40.4,30.17,NW,316,1.0,2.0,86,0.00,,,0.00,LWC2 V0.39 B123,2013-04-05 05:42:00,
2013-04-04 23:47:00,44.1,40.2,30.17,NW,316,0.0,0.0,86,0.00,,,0.00,LWC2 V0.39 B123,2013-04-05 05:47:00,
2013-04-04 23:52:00,44.0,40.4,30.17,NW,316,0.0,0.0,87,0.00,,,0.00,LWC2 V0.39 B123,2013-04-05 05:52:00,
2013-04-04 23:57:00,43.9,40.3,30.17,NW,316,0.0,0.0,87,0.00,,,0.00,LWC2 V0.39 B123,2013-04-05 05:57:00,